Dewpoint
70 70 70 69 70 70 69 67 56 60 60 54 54 56 56 60 63 62 62 63 62 66 66 66 67 65 64 64 63 64 64 58 63 55 53 65 70 70 71 71 72 73 73 74 75 74 75 76 76 76 76 77 77 76 76 77 76 76 76 76 76 76 76 76 76 76 76 76 76 76 76 76 76 75 75 75 75 75 75 75 74 74 74 74 75 74 75 75 75 75 74 74 73 74 74 75 75
70 70 70 70 69 70 64 67 59 57 57 55 55 58 60 62 61 62 61 64 65 66 65 65 65 64 66 65 64 63 63 65 66 65 67 69 70 71 72 72 72 72 74 74 74 74 75 75 76 76 77 77 77 77 77 76 76 76 76 76 76 76 76 76 76 76 76 75 75 75 76 76 76 76 75 75 75 74 74 74 74 73 74 75 75 74 74 75 74 75 74 74 74 74 74 74 74
70 70 69 71 67 67 67 66 56 56 53 49 51 58 62 61 60 62 63 64 66 65 65 64 64 66 65 63 63 63 60 66 66 67 67 70 68 70 72 72 72 73 74 74 74 74 75 76 76 77 77 77 77 77 77 76 76 76 76 76 76 76 76 76 76 76 76 76 75 75 76 76 76 75 75 75 74 74 74 74 73 73 74 74 74 74 74 75 75 75 74 74 74 74 74 74 75
70 69 68 69 64 68 63 62 59 56 53 51 51 59 61 60 61 62 64 65 64 63 63 64 63 63 65 63 63 64 64 64 66 67 66 68 67 71 71 71 73 74 74 75 75 75 76 76 77 77 76 77 77 77 77 76 76 76 76 76 76 76 76 76 76 76 76 75 75 75 76 75 75 75 75 75 75 74 74 73 73 74 73 74 74 74 75 74 75 75 75 74 74 74 74 74 74
69 70 69 68 67 62 62 61 59 58 53 53 51 59 61 62 62 64 65 64 65 65 62 64 61 65 66 64 63 63 63 66 66 67 67 69 71 71 71 72 73 73 74 75 75 75 76 76 77 77 76 76 77 77 77 76 76 76 76 76 76 76 76 76 76 76 75 75 75 75 75 75 75 76 75 74 74 74 74 74 74 74 73 74 74 74 75 74 74 75 74 74 74 74 74 74 74
68 68 69 70 64 68 64 58 57 56 56 60 56 60 62 63 62 62 63 65 65 64 65 63 61 62 63 63 65 64 65 63 66 67 67 70 71 71 71 72 72 73 74 75 75 75 76 77 77 76 76 76 77 77 77 76 76 76 76 76 77 76 76 76 76 76 75 74 75 74 75 76 75 75 75 74 74 74 74 74 74 74 74 73 74 75 74 74 74 74 75 74 74 74 74 74 74
67 68 70 69 68 68 59 57 56 56 57 60 58 63 65 64 62 63 62 62 66 66 66 62 62 62 60 63 65 65 67 66 66 66 69 70 71 71 71 71 72 73 74 75 75 75 76 77 77 76 77 76 76 77 77 76 76 76 76 77 76 77 76 76 76 75 75 75 75 75 75 75 75 75 75 75 74 74 74 74 74 74 74 73 74 74 74 74 74 74 74 74 74 74 74 74 74
70 69 66 63 61 62 58 57 57 57 57 59 60 62 64 63 63 63 61 59 60 61 62 62 62 62 62 64 62 66 67 68 67 70 71 71 70 70 71 71 72 73 74 75 75 76 77 77 77 77 77 76 76 77 77 76 76 76 77 76 77 76 76 76 76 75 75 75 74 75 75 75 75 76 75 75 75 74 74 74 74 74 74 74 73 74 74 74 74 74 74 73 74 74 74 74 74
70 70 69 65 60 60 58 57 56 59 58 58 60 64 66 65 66 63 62 62 62 62 61 61 61 60 62 64 64 67 69 70 70 71 70 70 70 70 70 71 72 73 74 74 75 76 76 77 77 77 77 76 76 77 77 76 76 77 77 76 77 76 76 76 75 75 75 74 75 75 75 75 76 75 75 75 75 75 74 74 74 74 74 74 74 74 74 74 74 74 74 73 74 74 74 74 74
69 69 63 62 61 56 54 54 52 53 58 61 61 64 66 66 64 65 62 60 61 61 61 61 62 62 64 62 64 66 68 70 70 70 70 70 70 70 70 71 72 73 73 74 75 76 76 77 77 77 77 77 76 77 77 76 76 77 77 77 76 76 76 75 76 75 75 75 75 75 75 75 75 75 75 75 75 75 75 74 74 74 74 74 73 75 75 74 74 74 74 74 74 74 74 74 73
65 67 67 61 57 54 52 52 54 58 59 60 64 66 65 66 64 62 63 60 61 60 63 63 62 63 63 64 65 69 70 70 69 69 70 70 69 69 70 71 72 73 73 74 75 76 76 76 77 77 77 76 76 77 77 76 76 77 76 77 76 76 76 76 75 75 75 75 75 75 75 75 75 75 75 75 76 76 75 75 75 74 74 74 75 75 75 74 74 75 74 74 74 74 74 73 73
64 63 64 58 56 53 53 53 54 56 59 60 60 63 64 65 65 63 62 60 60 61 61 62 62 64 63 63 65 68 69 69 69 69 69 69 69 69 70 71 72 73 74 74 75 76 76 76 76 77 76 76 77 77 77 76 76 77 77 77 76 76 76 75 75 75 75 75 75 75 75 75 75 75 74 75 75 75 76 75 75 75 75 75 75 75 75 74 74 75 75 74 74 74 74 73 73
65 64 62 58 56 55 56 55 55 56 56 57 58 63 64 64 64 64 63 61 60 61 60 62 64 64 61 62 66 67 67 68 69 69 69 69 68 69 70 71 72 73 74 75 75 75 76 76 76 76 76 77 76 77 77 76 76 77 77 76 76 76 76 75 75 75 75 75 75 74 74 75 75 75 74 75 75 75 75 76 76 76 75 75 75 75 74 75 75 74 74 74 74 74 74 74 75
65 64 61 55 57 56 55 55 55 54 51 56 60 64 63 62 63 66 65 62 60 60 61 64 64 64 63 64 66 65 66 68 68 69 69 68 68 69 71 72 73 73 74 75 75 76 76 75 75 76 75 75 75 76 77 76 76 77 76 76 76 76 75 75 75 75 75 75 75 75 75 75 75 75 75 75 75 75 75 74 75 75 75 75 75 75 74 74 74 74 74 74 74 74 74 74 74
65 65 61 57 56 55 55 53 53 51 50 57 61 62 61 61 63 64 62 61 59 63 64 64 64 61 61 62 63 64 66 67 68 69 68 67 68 70 72 72 73 73 74 75 75 75 75 75 75 75 75 75 76 76 76 76 76 77 77 76 76 76 75 75 75 75 75 75 75 75 75 75 75 74 75 74 74 75 74 74 74 75 75 75 74 75 75 75 75 75 74 74 74 74 74 75 75
67 65 61 57 53 54 54 54 54 51 51 56 61 61 61 63 62 62 62 62 61 63 63 62 64 61 62 62 63 65 66 67 68 68 67 67 70 72 72 72 72 73 73 74 75 75 75 75 74 74 75 75 76 76 76 76 76 77 77 77 76 76 75 75 75 76 75 75 75 75 75 75 75 74 74 74 74 74 74 74 73 75 74 74 75 75 75 75 75 75 75 74 74 74 74 74 75
67 66 60 57 55 55 54 53 51 48 51 55 60 60 60 60 61 60 62 62 62 62 62 64 63 64 63 63 65 66 67 68 68 67 67 69 71 71 71 71 72 72 73 74 75 75 75 75 74 74 75 75 75 75 75 75 76 76 77 76 77 76 75 76 76 76 76 75 75 75 75 75 75 74 75 75 75 75 74 74 74 74 74 75 75 75 74 75 75 75 75 74 74 74 74 74 74
69 62 59 57 57 55 55 53 49 50 52 55 58 59 58 57 60 59 61 62 63 62 62 63 64 64 64 64 66 66 67 67 67 66 67 70 70 70 70 71 71 71 72 73 74 75 75 74 74 75 75 75 75 75 75 75 76 76 76 75 76 75 75 75 75 75 76 75 75 75 75 75 74 73 74 75 76 74 75 74 74 73 74 74 74 74 74 74 74 74 74 75 74 75 76 73 74
64 60 58 56 56 57 57 55 52 53 52 55 57 58 57 57 59 58 59 61 61 60 61 63 63 64 64 65 66 66 67 67 66 66 68 69 69 69 70 70 70 70 71 73 74 74 74 74 74 75 75 75 75 75 75 75 75 75 75 75 76 76 76 76 75 76 74 74 75 74 75 75 74 74 75 76 77 75 76 75 74 74 74 74 74 74 74 74 74 74 74 74 74 76 74 72 72
63 61 56 57 58 57 56 55 53 53 54 55 56 57 55 56 58 58 59 60 60 59 60 62 63 62 63 64 65 66 66 66 66 67 68 69 69 69 69 70 69 70 71 72 73 74 74 74 74 75 75 75 75 75 75 75 75 75 75 75 75 75 76 76 75 75 75 74 75 74 75 75 75 74 77 75 74 76 75 76 74 74 74 74 74 76 74 74 74 74 74 74 77 76 74 73 72
62 62 59 57 58 57 57 55 54 52 54 55 56 56 55 55 56 57 59 59 59 60 61 62 63 63 63 64 65 66 66 66 66 67 68 68 69 69 70 70 69 69 70 71 73 73 74 74 74 75 75 75 75 75 75 75 75 75 75 75 75 75 75 75 75 75 74 74 74 75 75 75 74 74 74 75 74 75 74 74 75 75 76 74 77 74 76 76 75 74 75 77 75 75 73 72 72
59 61 61 59 56 56 56 55 54 52 53 54 54 53 53 54 55 57 58 58 58 59 61 62 63 63 63 64 64 65 65 66 66 67 68 68 68 69 69 69 69 69 70 70 72 73 74 74 74 75 75 75 74 75 75 76 75 75 75 75 75 75 75 75 74 75 75 74 74 75 76 75 74 74 74 74 74 74 73 73 74 74 74 75 77 74 74 74 74 74 75 75 74 74 73 72 72
57 57 58 59 59 55 55 52 53 52 50 52 51 53 52 52 53 55 59 58 59 61 61 63 64 64 64 64 64 64 65 66 66 67 67 68 68 68 69 69 69 68 69 70 71 72 73 74 74 75 74 74 74 74 75 76 75 75 75 75 75 75 75 74 74 74 75 74 74 75 75 74 74 74 74 74 73 74 73 73 74 74 74 74 76 74 74 74 74 74 74 74 74 73 72 71 72
56 55 56 55 55 54 55 54 53 52 50 50 51 52 50 51 50 52 58 58 60 61 62 63 64 64 64 63 64 64 65 66 66 67 67 68 68 68 69 68 69 69 69 69 70 72 73 73 74 74 74 74 74 74 74 75 75 75 75 76 76 75 75 75 75 75 75 75 75 75 76 74 74 74 74 74 74 74 74 73 74 74 74 74 75 75 74 74 74 74 74 74 73 73 72 71 71
54 54 54 54 54 53 51 51 52 51 49 50 50 50 50 50 50 53 55 58 60 61 62 63 64 64 63 63 64 65 65 66 66 67 67 68 68 68 68 68 68 68 68 69 70 71 73 73 73 74 73 73 74 74 74 75 75 75 75 75 75 76 75 75 75 75 75 75 75 75 76 74 73 74 74 74 73 74 74 74 74 74 74 74 74 75 75 74 74 73 74 74 73 73 72 71 71
48 51 53 53 53 53 51 48 48 50 50 49 48 49 49 50 52 52 55 59 60 61 62 63 63 63 63 63 64 65 65 66 66 66 67 67 68 68 68 68 68 68 68 69 70 71 72 73 73 73 72 73 73 74 74 74 75 74 74 75 75 76 75 75 75 74 75 75 75 75 75 74 74 73 74 74 73 73 74 74 74 74 74 74 75 75 75 74 74 73 73 73 73 72 72 71 72
49 48 48 49 50 51 50 48 48 49 49 48 47 48 48 49 51 49 59 60 61 61 62 62 62 62 62 63 64 65 65 65 66 66 66 66 67 67 67 68 68 68 68 69 69 70 72 72 72 72 72 73 73 73 74 74 74 74 74 74 75 75 75 75 75 74 75 75 75 75 75 75 74 73 73 74 74 73 73 74 74 74 74 74 75 75 75 75 74 74 74 73 73 72 72 72 72
43 43 45 47 49 50 50 49 47 48 47 48 47 47 48 49 50 50 59 60 61 61 61 62 62 62 62 63 64 65 65 66 66 66 66 66 66 67 67 67 67 67 68 68 69 70 71 71 71 71 71 72 73 73 74 73 74 74 74 74 74 74 75 74 74 74 75 75 75 75 75 75 76 73 73 73 73 73 73 74 74 74 74 74 74 74 74 75 74 73 73 73 72 72 72 71 71
41 43 42 43 45 44 44 44 46 47 46 47 47 47 46 48 48 53 60 60 60 60 61 61 62 62 63 63 63 64 65 65 66 65 65 66 66 67 67 67 67 67 68 68 69 70 70 70 70 70 70 72 72 72 73 73 73 73 73 73 74 74 74 74 74 74 74 75 75 75 75 75 76 74 73 73 75 73 73 73 74 74 73 74 74 74 74 74 74 73 73 73 72 71 71 71 72
40 41 42 42 42 42 42 41 42 45 46 47 47 43 44 47 48 58 60 60 60 60 60 61 61 62 62 63 63 64 64 65 65 65 66 66 66 66 67 67 67 67 67 68 69 69 70 70 70 69 70 71 71 71 73 72 72 73 73 73 74 74 74 74 74 74 74 75 75 75 75 75 75 75 73 73 74 74 74 74 73 72 72 74 74 74 73 73 73 72 72 74 75 73 71 71 71
39 40 42 41 40 39 41 40 40 43 45 47 46 42 43 44 49 59 60 60 60 59 60 60 61 61 62 62 62 63 64 65 65 65 65 66 66 66 67 67 67 67 68 68 68 69 69 69 69 68 70 70 72 71 72 72 72 72 73 73 73 73 73 73 73 74 74 74 74 74 75 75 76 75 74 73 74 74 73 74 74 73 74 74 74 74 73 73 72 72 73 73 72 73 72 71 71
35 35 35 36 38 38 39 39 40 40 45 46 44 42 42 43 52 58 60 60 60 59 59 60 60 61 61 61 62 62 63 64 64 65 65 65 66 66 67 67 67 67 67 67 68 68 69 69 70 68 69 70 71 71 72 72 71 71 72 74 72 73 73 73 73 74 74 74 74 74 74 75 76 75 74 74 74 73 72 74 74 74 75 75 74 74 73 72 72 73 74 73 70 68 69 68 71
34 33 32 33 35 37 35 35 38 41 43 45 44 42 45 44 55 58 59 59 59 59 59 60 60 60 61 61 61 62 62 63 64 64 65 65 66 66 67 67 67 67 68 68 68 68 68 69 70 67 68 70 71 71 72 72 71 71 71 72 72 72 73 73 73 73 74 74 74 74 74 75 75 75 75 74 74 74 74 74 74 73 75 75 74 74 73 74 74 74 72 73 67 62 63 63 68
33 32 32 32 31 33 32 35 37 39 41 43 44 42 42 47 56 57 58 59 59 59 59 59 60 60 60 61 60 61 62 62 63 64 64 65 66 66 67 69 68 68 68 68 68 68 68 69 69 68 68 70 71 71 72 72 71 71 71 72 73 72 73 73 73 73 73 73 74 74 74 75 75 75 75 75 74 74 74 74 74 74 75 74 74 74 73 73 73 72 70 69 67 60 61 62 64
33 31 32 31 31 32 32 33 35 39 41 43 44 43 42 49 55 56 57 58 58 58 59 59 59 60 60 60 60 60 61 62 62 64 64 65 65 66 66 68 68 68 68 69 69 69 69 69 70 69 69 70 71 71 72 72 72 71 71 72 72 72 72 73 73 73 73 73 73 74 74 74 75 74 75 75 74 75 74 74 74 75 75 74 74 73 72 72 72 71 69 65 67 61 62 63 64
31 30 30 31 30 31 31 32 34 39 41 42 43 43 42 50 55 56 56 57 56 57 58 58 59 59 59 59 59 59 60 61 62 63 64 65 65 66 66 67 68 68 69 69 70 70 69 70 70 70 70 70 71 71 72 71 71 71 71 71 71 72 72 73 72 72 72 73 73 74 74 74 74 74 74 74 74 75 73 73 73 75 75 74 73 72 72 72 71 71 71 65 64 66 65 65 66
29 31 30 30 30 30 30 30 31 36 36 39 41 43 44 50 54 55 56 56 56 56 56 57 58 58 58 58 59 59 60 60 62 62 63 64 64 65 66 67 68 68 69 69 69 70 70 70 70 70 70 71 71 71 71 71 70 70 70 70 70 71 71 72 72 72 72 73 73 74 74 74 74 74 75 74 74 76 73 72 72 75 75 75 73 73 72 72 72 71 71 71 65 63 61 63 65
27 25 26 27 29 29 31 30 31 34 33 33 37 42 46 50 53 55 56 56 55 55 56 56 57 57 57 58 58 58 59 61 61 62 63 63 63 64 65 66 68 68 69 69 69 70 70 70 70 70 70 71 71 71 71 71 70 70 69 69 70 71 71 71 71 71 71 72 73 74 74 74 74 74 75 74 74 75 73 72 73 74 75 74 73 73 72 75 74 73 69 66 66 63 60 62 65
23 22 23 23 24 26 26 26 28 29 33 31 35 43 46 49 52 54 55 55 56 56 56 56 56 56 57 57 58 58 58 59 60 61 62 62 62 63 64 66 67 67 68 69 69 69 70 70 70 70 70 70 71 71 71 71 71 71 70 70 70 70 71 71 71 71 71 71 73 74 74 74 74 74 74 75 74 74 74 73 73 74 75 75 73 71 72 72 72 72 68 66 63 62 64 65 64
26 23 21 21 23 27 25 28 30 28 28 28 32 40 45 48 51 53 55 55 55 56 56 56 56 56 56 57 57 57 58 59 59 60 61 62 62 62 63 65 66 67 68 68 69 69 69 70 70 70 71 70 70 71 72 71 71 71 71 70 70 70 70 71 71 72 71 70 71 73 74 74 74 74 74 74 74 74 74 74 74 74 74 75 74 72 71 71 71 71 68 69 63 59 60 58 67
24 23 22 21 21 22 23 25 24 25 25 26 25 35 40 46 49 51 54 55 55 55 56 56 56 57 57 57 57 58 58 58 59 60 61 61 61 61 62 64 65 66 67 68 69 69 69 69 70 70 71 70 70 71 71 71 71 71 71 70 71 71 71 70 70 70 71 70 71 72 73 74 74 74 74 74 75 73 74 74 74 74 74 74 74 72 71 71 71 71 69 69 62 59 61 58 63
25 24 22 22 21 21 22 22 24 24 24 26 24 26 33 44 48 50 51 53 53 54 55 55 56 56 57 56 57 57 58 58 59 59 60 60 61 61 62 63 65 66 66 67 69 69 68 69 70 70 71 71 70 70 71 71 71 70 70 69 69 69 69 69 68 69 70 70 70 72 73 74 74 74 74 74 74 74 74 74 73 74 74 74 74 73 72 71 71 71 70 69 65 64 60 60 62
23 25 24 22 21 21 21 22 23 25 24 27 28 23 26 40 46 48 50 51 52 53 53 54 56 56 56 56 57 57 57 58 58 59 60 60 61 61 61 62 64 65 66 67 68 69 69 69 69 70 71 71 71 70 71 71 70 70 70 69 68 68 68 69 69 69 70 71 71 72 73 74 74 74 74 74 74 74 74 74 73 74 74 75 75 73 72 72 72 72 71 69 67 68 60 59 63
21 24 23 22 21 20 20 21 22 23 29 26 25 29 28 32 44 47 49 50 51 51 51 53 54 55 56 56 57 57 57 58 58 58 59 60 60 60 61 61 63 65 66 66 67 68 68 69 69 70 70 71 71 71 71 71 70 70 70 69 69 68 68 68 69 69 70 71 72 72 73 74 74 74 74 74 74 74 74 74 73 74 74 75 75 74 73 73 72 72 72 70 68 67 59 60 63
23 22 21 20 21 21 21 20 20 23 24 21 22 26 24 33 37 46 48 48 49 50 50 51 52 54 55 56 57 57 57 58 58 58 58 59 59 60 61 61 62 64 65 66 67 68 68 68 69 70 70 71 71 71 71 71 71 70 70 69 69 69 69 69 70 70 69 71 72 72 73 73 74 74 74 74 74 74 75 74 74 73 74 74 76 74 73 73 73 72 71 69 67 67 60 62 64
27 26 23 22 22 20 20 20 20 23 24 20 22 22 21 23 35 42 47 47 47 48 49 50 51 53 54 55 56 57 57 58 58 58 58 58 59 60 60 61 61 62 64 66 66 67 68 68 69 69 70 70 71 71 71 70 70 71 70 69 69 69 69 70 70 69 69 70 70 72 73 73 73 74 74 74 74 74 74 74 74 74 74 74 76 75 74 73 73 72 71 70 68 67 64 65 64
30 28 26 24 23 23 24 26 24 26 20 20 20 21 21 20 28 40 44 45 47 48 49 50 51 51 53 54 55 56 57 57 58 58 58 58 59 59 60 60 61 62 63 65 66 67 67 67 68 69 69 70 71 71 71 70 70 70 70 69 69 69 69 69 69 69 69 69 69 71 72 73 73 73 73 74 74 74 74 75 74 74 74 75 76 75 74 73 73 72 71 70 68 66 65 64 66
29 27 26 27 27 28 25 26 29 22 20 24 22 22 20 19 24 32 44 46 47 47 47 48 49 50 51 53 54 56 57 57 57 58 58 58 59 59 59 60 60 62 63 64 65 66 67 67 68 68 69 70 70 71 71 70 70 70 70 69 69 69 69 69 69 69 69 69 69 69 71 73 73 73 73 73 74 74 74 74 75 74 75 75 75 75 75 74 73 73 71 70 68 67 66 65 65
28 27 27 25 25 24 22 22 19 22 22 26 20 19 19 20 21 22 38 45 46 47 47 48 49 49 51 52 53 55 56 57 57 57 58 58 58 58 59 60 61 61 63 63 64 65 66 67 68 68 69 70 70 70 71 70 70 70 70 69 69 69 69 69 69 69 69 69 69 69 70 72 72 72 73 73 73 73 74 74 74 74 74 75 75 75 74 74 74 73 71 70 69 67 66 65 65
27 26 26 25 22 21 22 22 20 16 22 22 19 19 16 24 22 20 29 41 45 46 47 47 48 49 50 51 53 54 56 56 57 57 57 58 58 58 59 60 60 61 62 63 64 65 66 67 68 68 69 70 70 70 70 70 70 70 70 70 69 70 69 69 69 69 69 69 69 69 69 71 72 72 72 73 73 73 74 74 74 74 74 74 75 75 75 74 74 73 71 70 69 68 67 65 65
26 27 25 25 24 22 21 21 19 18 20 17 16 15 19 15 24 21 21 35 43 45 46 47 49 49 50 51 52 53 55 56 57 57 57 58 58 58 59 60 61 61 62 63 64 65 66 67 68 68 69 69 70 70 70 70 70 70 70 70 70 70 69 70 70 70 69 69 69 69 69 70 71 72 72 72 73 73 73 74 74 74 74 74 75 75 75 74 74 73 72 70 70 69 68 67 65
26 27 26 24 24 28 22 22 18 18 17 15 17 16 21 17 29 38 22 26 37 44 45 47 48 50 50 51 51 52 54 55 56 57 58 58 58 59 59 60 61 61 62 63 64 65 66 67 68 68 69 69 70 70 70 70 70 70 70 70 70 70 70 70 70 70 70 69 69 69 69 70 71 72 72 72 73 73 73 74 74 74 74 74 75 75 75 74 74 73 72 70 69 70 69 68 67
22 25 24 24 22 21 23 32 30 25 19 13 28 17 18 20 18 16 26 25 31 40 44 45 47 49 50 50 51 52 53 55 56 57 57 58 58 59 59 60 60 61 62 63 64 65 66 67 67 68 69 69 70 70 70 70 70 70 70 70 70 70 70 69 69 70 70 69 69 70 70 69 71 72 72 73 72 73 73 73 74 74 74 74 74 75 75 75 74 73 73 71 69 70 70 68 68
21 21 23 21 21 22 21 18 23 18 12 17 22 14 17 13 17 28 20 27 30 37 42 44 46 48 49 50 51 52 53 54 56 57 58 58 58 59 59 60 60 61 62 63 64 65 66 67 67 68 68 69 70 70 70 70 70 70 70 70 70 69 70 70 69 70 70 70 69 69 70 70 70 71 72 73 72 73 73 75 74 74 74 74 74 75 75 75 74 74 73 72 71 70 70 69 69
22 21 21 21 18 18 20 23 15 13 15 15 17 25 19 17 21 24 16 16 24 37 40 43 45 47 49 50 51 52 53 54 55 56 57 58 58 58 59 59 60 61 63 63 64 65 65 66 67 67 68 68 69 70 70 70 70 70 70 70 70 69 70 70 70 70 70 70 69 69 69 70 70 72 73 73 72 72 73 73 74 74 74 74 74 74 75 74 74 74 73 73 72 70 70 69 69
24 20 20 22 19 20 18 18 24 19 18 17 12 17 11 21 13 16 12 14 19 37 40 42 43 46 48 49 50 51 53 54 55 56 57 58 58 58 58 59 60 61 62 63 64 65 65 66 67 67 68 68 69 69 70 70 70 70 70 70 70 70 70 70 70 70 69 70 70 70 69 70 71 72 72 72 72 72 72 73 73 73 74 74 74 74 75 75 74 74 74 73 72 71 70 69 69
18 18 17 19 21 22 19 23 16 17 24 17 15 11 18 24 27 16 14 15 17 34 41 42 43 45 47 49 50 51 52 53 55 56 57 58 58 58 58 59 60 61 62 63 64 64 65 65 66 67 67 67 68 69 70 70 70 70 70 70 70 70 70 70 70 70 69 70 70 71 70 70 71 72 72 72 72 72 72 72 73 73 73 73 74 74 74 74 74 74 74 73 73 72 71 70 70
16 17 17 17 17 17 15 16 19 21 19 18 14 10 23 25 26 18 17 18 15 27 40 43 43 44 47 49 50 51 52 53 54 56 57 58 58 58 59 59 60 61 62 63 64 64 65 65 66 66 67 67 67 68 69 70 70 69 69 69 69 69 70 70 69 70 70 70 70 71 71 71 70 71 72 72 72 72 72 72 72 73 73 73 73 74 74 74 74 74 74 74 73 72 72 71 70